Regional Weather Roundup
Issued by NWS

Home | Current Version | Previous Version | Text Only | Print | Product List | Glossary On
Versions: 1 2 3 4 5 6 7 8 9 10 11 12 13 14 15 16 17 18 19 20 21 22 23 24 25 26 27 28 29 30 31 32 33 34 35 36 37 38 39 40 41 42 43 44 45 46 47 48 49 50
000
ASUS43 KMPX 230501
RWRMN
WEATHER ROUNDUP FOR MINNESOTA
NATIONAL WEATHER SERVICE TWIN CITIES/CHANHASSEN MN
1200 AM CDT TUE AUG 23 2016


NOTE: "FAIR" INDICATES FEW OR NO CLOUDS BELOW 12,000 FEET WITH NO
SIGNIFICANT WEATHER AND/OR OBSTRUCTIONS TO VISIBILITY. N/A MEANS
CURRENT SKY AND/OR WEATHER CONDITIONS ARE NOT AVAILABLE.

MNZ060>063-068>070-230600-
   Twin Cities Metro

CITY           SKY/WX    TMP DP  RH WIND       PRES   REMARKS
TWIN CITIES    CLEAR     74  60  61 S13G23    29.94R
ST PAUL        CLEAR     70  61  73 S10       29.95R
CRYSTAL        CLEAR     74  58  57 S14G23    29.91R
BLAINE         CLEAR     75  61  60 S18G24    29.92S
LAKEVILLE      CLEAR     66  61  82 S9G17     29.95S
EDEN PRAIRIE   CLEAR     73  60  63 S16G24    29.92S
LAKEVILLE      CLEAR     66  61  82 S9G17     29.95S
SOUTH ST PAUL  CLEAR     70  60  69 S9        29.95S
LAKE ELMO      FAIR      70  63  78 S13       29.96S
$$
MNZ001>005-007-008-013>017-022>024-027-028-230600-
   Northwest Minnesota

CITY           SKY/WX    TMP DP  RH WIND       PRES   REMARKS
BEMIDJI        CLEAR     70  66  88 S8        29.78S
HALLOCK        CLEAR     70  66  88 SE9       29.68F
ROSEAU         CLEAR     64  59  82 SE3       29.74S
WARROAD        CLEAR     66  63  88 CALM      29.76S FOG
THIEF RVR FALL CLEAR     69  65  86 SE10      29.73F
CROOKSTON      CLEAR     70  66  88 S9        29.70S
FOSSTON        CLEAR     72  64  78 S12       29.75S
DETROIT LAKES  CLEAR     73  64  73 S12       29.78S
MOORHEAD       CLEAR     75  66  73 S14G21    29.72R
PARK RAPIDS    CLEAR     71  65  81 SE9       29.81R
MAHNOMEN       FAIR      72  67  82 S8        29.75S
$$
MNZ006-009>011-018-025>026-230600-
   North Central Minnesota

CITY           SKY/WX    TMP DP  RH WIND       PRES   REMARKS
BAUDETTE       CLEAR     66  63  90 SE5       29.77S
FLAG ISLAND    CLEAR     72  68  88 CALM      29.75S FOG
INTL FALLS     CLEAR     62  60  93 SE5       29.80R
WASKISH        CLEAR     66  64  94 SE3       29.77F
BIG FORK       CLEAR     66  64  94 S3        29.82S
LONGVILLE      CLEAR     72  66  83 S10       29.83R
GRAND RAPIDS   CLEAR     70  64  81 S12       29.86R
CRANE LAKE     CLEAR     59  57  94 CALM      29.84S
ORR            CLEAR     66  61  82 CALM      29.81S
COOK           CLEAR     70  63  78 S7        29.85S
WALKER         FAIR      73  65  76 S10G16    29.80S
$$
MNZ012-019>021-037-230600-
   Northeast Minnesota

CITY           SKY/WX    TMP DP  RH WIND       PRES   REMARKS
DULUTH         CLEAR     70  61  73 SW14      29.89S
ELY            CLEAR     70  61  73 SW7       29.87S
HIBBING        CLEAR     67  62  84 S3        29.86R
EVELETH        CLEAR     68  61  77 S3        29.88S
DULUTH HARBOR  CLEAR     72  63  73 SW9       29.88S
TWO HARBORS    CLEAR     66  63  88 CALM      29.87S
SILVER BAY     CLEAR     64  63  94 CALM      29.87S
GRAND MARAIS     N/A     68  64  87 CALM      29.87S
G MARAIS ARPRT CLOUDY    66  57  72 S5        29.93S
$$
MNZ029>031-032-039>041-046>048-054>057-064-230600-
   West Central Minnesota

CITY           SKY/WX    TMP DP  RH WIND       PRES   REMARKS
FERGUS FALLS     N/A     73  64  73 S15       29.78S
WHEATON        CLEAR     73  66  78 SE13G18   29.75S
MORRIS         CLEAR     72  63  73 SE13      29.79S
ALEXANDRIA     CLEAR     72  62  71 S22G30    29.83S
ELBOW LAKE     FAIR      70  64  81 S20       29.78F
GLENWOOD       CLOUDY    70  63  78 S14G22    29.86R
APPLETON       CLEAR     73  61  64 S14G20    29.80S
BENSON         CLOUDY    70  61  73 S10       29.83S
ORTONVILLE     CLEAR     73  63  68 S9G16     29.78S
MADISON        CLEAR     73  61  64 S14G22    29.81R
WILLMAR        FAIR      72  63  73 S6        29.88S
$$
MNZ033>034-036-042>043-049>051-058-059-230600-
   Central Minnesota

CITY           SKY/WX    TMP DP  RH WIND       PRES   REMARKS
ST CLOUD       CLEAR     71  62  73 S17G24    29.88S
SAUK CENTRE    FAIR      70  62  76 S15G21    29.85S
PAYNESVILLE    CLOUDY    70  61  73 S10G17    29.88S
AITKIN         CLEAR     73  61  64 S13       29.85S
PINE RIVER     CLEAR     72  64  78 S6        29.87S
BRAINERD       CLEAR     70  62  76 S10       29.86R
STAPLES        CLOUDY    72  61  68 S12G17    29.83R
LONG PRAIRIE   FAIR      70  61  73 SE15G23   29.85S
LITTLE FALLS   CLOUDY    72  59  64 S7        29.87R
LITCHFIELD     CLOUDY    72  64  78 S7        29.90R
BUFFALO        CLEAR     71  60  67 S15G23    29.92R
MAPLE LAKE     CLOUDY    72  63  73 S12G22    29.91R
HUTCHINSON     CLEAR     71  63  76 S13G20    29.92S
$$
MNZ037-044-045-052-053-230600-
   East Central Minnesota

CITY           SKY/WX    TMP DP  RH WIND       PRES   REMARKS
PRINCETON      CLEAR     73  61  64 S12G22    29.90S
MORA           CLEAR     70  61  73 S8        29.92R
CAMBRIDGE      CLEAR     75  61  60 S10G20    29.89S
RUSH CITY      CLEAR     70  60  70 S7        29.92R
MOOSE LAKE     CLEAR     68  59  73 S3        29.88R
HINCKLEY       FAIR      66  61  82 S5        29.91S
CLOQUET        CLEAR     70  57  64 S10       29.89S
MCGREGOR       CLEAR     70  61  73 S8        29.87F
$$
MNZ071>073-080-081-089-090-097-098-230600-
   Southwest Minnesota

CITY           SKY/WX    TMP DP  RH WIND       PRES   REMARKS
MONTEVIDEO     CLOUDY    72  63  73 S13       29.85S
GRANITE FALLS  CLOUDY    71  64  77 S13G18    29.87S
CANBY          CLEAR     75  61  61 SW17G31   29.81S
MARSHALL       CLOUDY    72  61  68 S28G36    29.83F
REDWOOD FALLS  PTCLDY    72  59  63 S20G26    29.88S
OLIVIA         CLOUDY    70  61  73 S13G18    29.88S
PIPESTONE      CLOUDY    70  61  73 S14G20    29.90S
WINDOM         CLOUDY    72  57  60 S18G28    29.94S
WORTHINGTON    CLEAR     69  60  73 S17G23    29.94S
JACKSON        CLEAR     70  55  60 S13G20    29.97S
TRACY          PTCLDY    71  62  72 S17G28    29.88S
$$
MNZ065>067-074>077-082>085-091>093-230600-
   South Central Minnesota

CITY           SKY/WX    TMP DP  RH WIND       PRES   REMARKS
MANKATO        CLEAR     70  59  68 S15G22    29.96S
NEW ULM          N/A     70  61  73 S15G21      N/A
ST JAMES       CLOUDY    64  57  77 S12G20    29.95S
GLENCOE        CLOUDY    71  64  79 S13G18    29.92S
FARIBAULT      CLEAR     66  61  82 S7        29.98S
OWATONNA       CLEAR     66  61  82 S9        29.99S
WASECA         CLEAR     64  59  82 S13G22    30.00S
ALBERT LEA     CLEAR     68  61  77 S9        30.01S
$$
MNZ078>079-086>088-094>096-230600-
   Southeast Minnesota

CITY           SKY/WX    TMP DP  RH WIND       PRES   REMARKS
ROCHESTER      CLEAR     66  61  84 S14       30.03R
RED WING       CLEAR     72  59  64 CALM      29.97S
DODGE CENTER   CLEAR     64  61  88 S12       30.01S
WINONA         CLEAR     70  61  73 S5        30.02S
AUSTIN         CLEAR     64  61  88 S10       30.03R
PRESTON        CLEAR     65  59  80 S12G18    30.05R
$$
ABBREVIATIONS USED IN REMARKS
   TC - TEMPERATURES IN CELSIUS
  WCI - WIND CHILL INDEX
   HX - HEAT INDEX
  VSB - VISIBILITY
$$




USA.gov is the U.S. government's official web portal to all federal, state and local government web resources and services.